Indianapolis Mount Comfort, IN

11:29 PM EDT on May 22, 2017 (GMT -0400)
Mount Comfort

Weather History for KMQJ - April, 2014

Change the Weather History Date:

Thursday, April 3, 2014

  Actual Average (KEYE) Record (KEYE)
Temperature  
Mean Temperature 58 °F -  
Max Temperature 66 °F 57 °F 84 °F (2012)
Min Temperature 50 °F 38 °F 24 °F (2013)
Degree Days  
Heating Degree Days 7    
Growing Degree Days 8 (Base 50)    
Moisture  
Dew Point 62 °F    
Average Humidity 97    
Maximum Humidity 100    
Minimum Humidity 88    
Precipitation  
Precipitation 0.00 in - - ()
Sea Level Pressure  
Sea Level Pressure 29.81 in    
Wind  
Wind Speed 11 mph (SE)    
Max Wind Speed 21 mph    
Max Gust Speed 26 mph    
Visibility 6 miles    
Events      
Averages and records for this station are not official NWS values.
T = Trace of Precipitation, MM = Missing Value Source: NWS Daily Summary

Daily Weather History Graph

Daily Weather History Graph

Search for Another Location

Airport or City:

Trip Planner

Search our weather history database for the weather conditions in past years. The results will help you decide how hot, cold, wet, or windy it might be!

Date:

Astronomy

Apr. 03, 2014 Rise Set
Actual Time 7:24 AM EDT 8:09 PM EDT
Civil Twilight 6:57 AM EDT 8:37 PM EDT
Nautical Twilight 6:24 AM EDT 9:09 PM EDT
Astronomical Twilight 5:51 AM EDT 9:43 PM EDT
Moon 9:53 AM EDT (4/3) No Moon Set
Length of Visible Light 13h 40m
Length of Day
12h 45m
Waxing Crescent, 17% of the Moon is Illuminated
Apr 3
Waxing Crescent
Apr 7
First Quarter
Apr 15
Full
Apr 22
Last Quarter
Apr 29
New

Hourly Weather History & Observations

Time (EDT) Temp. Dew Point Humidity Pressure Visibility Wind Dir Wind Speed Gust Speed Precip Events Conditions
12:14 AM 50.0 °F - N/A% 30.03 in 7.0 mi East 8.1 mph - N/A   Overcast
12:35 AM 50.0 °F - N/A% 30.02 in 7.0 mi East 9.2 mph - N/A   Overcast
12:55 AM 50.0 °F - N/A% 30.01 in 7.0 mi East 12.7 mph - N/A   Mostly Cloudy
1:15 AM 50.0 °F - N/A% 30.00 in 7.0 mi East 11.5 mph 16.1 mph N/A   Overcast
1:35 AM 50.0 °F - N/A% 30.00 in 7.0 mi East 11.5 mph - N/A   Mostly Cloudy
1:54 AM 50.0 °F - N/A% 30.01 in 7.0 mi ENE 9.2 mph - N/A   Overcast
2:15 AM 50.0 °F - N/A% 29.98 in 5.0 mi East 11.5 mph - N/A   Overcast
2:35 AM 50.0 °F - N/A% 29.98 in 5.0 mi East 13.8 mph - N/A   Overcast
2:54 AM 50.0 °F - N/A% 29.97 in 7.0 mi ESE 12.7 mph - N/A   Overcast
3:15 AM 50.0 °F - N/A% 29.96 in 7.0 mi ESE 13.8 mph 21.9 mph N/A   Overcast
3:35 AM 50.0 °F - N/A% 29.96 in 5.0 mi East 10.4 mph - N/A   Overcast
3:55 AM 50.0 °F - N/A% 29.94 in 5.0 mi ENE 11.5 mph - N/A   Overcast
4:15 AM 50.0 °F - N/A% 29.93 in 7.0 mi East 11.5 mph - N/A   Overcast
4:35 AM 50.0 °F - N/A% 29.92 in 7.0 mi ESE 13.8 mph 19.6 mph N/A   Overcast
4:55 AM 50.0 °F - N/A% 29.90 in 5.0 mi ESE 13.8 mph 20.7 mph N/A   Overcast
5:15 AM 50.0 °F - N/A% 29.92 in 5.0 mi East 8.1 mph - N/A   Overcast
5:34 AM 50.0 °F - N/A% 29.91 in 5.0 mi ENE 5.8 mph - N/A   Overcast
5:55 AM 50.0 °F - N/A% 29.90 in 2.5 mi East 10.4 mph - N/A   Overcast
6:15 AM 50.0 °F - N/A% 29.89 in 5.0 mi East 10.4 mph - N/A   Overcast
6:34 AM 50.0 °F - N/A% 29.89 in 5.0 mi East 11.5 mph - N/A   Overcast
6:55 AM 50.0 °F - N/A% 29.88 in 5.0 mi East 11.5 mph - N/A   Overcast
7:15 AM 51.8 °F - N/A% 29.86 in 4.0 mi East 10.4 mph - N/A   Overcast
7:35 AM 51.8 °F - N/A% 29.87 in 1.2 mi East 10.4 mph - N/A   Overcast
7:55 AM 51.8 °F - N/A% 29.87 in 2.0 mi ESE 10.4 mph 17.3 mph N/A   Overcast
8:14 AM 51.8 °F - N/A% 29.86 in 4.0 mi ESE 12.7 mph 19.6 mph N/A   Overcast
8:35 AM 51.8 °F - N/A% 29.85 in 5.0 mi ESE 10.4 mph 20.7 mph N/A   Overcast
8:55 AM 51.8 °F - N/A% 29.83 in 2.0 mi ESE 13.8 mph 18.4 mph N/A   Overcast
9:14 AM 51.8 °F - N/A% 29.83 in 7.0 mi SE 12.7 mph 25.3 mph N/A   Overcast
9:35 AM 53.6 °F - N/A% 29.81 in 7.0 mi SE 13.8 mph 21.9 mph N/A   Overcast
9:55 AM 53.6 °F - N/A% 29.78 in 3.0 mi SE 15.0 mph 24.2 mph N/A   Overcast
10:15 AM 53.6 °F - N/A% 29.76 in 5.0 mi SE 20.7 mph 26.5 mph N/A   Overcast
10:35 AM 53.6 °F - N/A% 29.74 in 7.0 mi SE 17.3 mph 26.5 mph N/A   Overcast
10:54 AM 53.6 °F - N/A% 29.75 in 5.0 mi SE 17.3 mph 26.5 mph N/A   Overcast
11:15 AM 55.4 °F - N/A% 29.81 in 0.8 mi South 13.8 mph 17.3 mph N/A   Overcast
11:35 AM 55.4 °F - N/A% 29.78 in 2.0 mi SSE 10.4 mph 16.1 mph N/A   Overcast
11:55 AM 55.4 °F - N/A% 29.74 in 2.0 mi SSE 13.8 mph 24.2 mph N/A   Overcast
12:15 PM 57.2 °F - N/A% 29.75 in 5.0 mi SSE 13.8 mph 20.7 mph N/A   Overcast
12:35 PM 57.2 °F - N/A% 29.75 in 7.0 mi South 12.7 mph 18.4 mph N/A   Overcast
12:55 PM 57.2 °F - N/A% 29.75 in 10.0 mi South 12.7 mph 19.6 mph N/A   Overcast
1:15 PM 57.2 °F - N/A% 29.70 in 7.0 mi SSE 12.7 mph 20.7 mph N/A   Overcast
1:34 PM 59.0 °F - N/A% 29.69 in 10.0 mi SSE 12.7 mph 20.7 mph N/A   Overcast
1:55 PM 59.0 °F - N/A% 29.71 in 10.0 mi South 9.2 mph - N/A   Mostly Cloudy
2:15 PM 59.0 °F - N/A% 29.70 in 10.0 mi South 8.1 mph - N/A   Mostly Cloudy
2:34 PM 60.8 °F - N/A% 29.70 in 10.0 mi SSW 10.4 mph 16.1 mph N/A   Overcast
2:55 PM 60.8 °F - N/A% 29.70 in 10.0 mi SSW 9.2 mph - N/A   Mostly Cloudy
3:14 PM 62.6 °F 62.6 °F 100% 29.69 in 10.0 mi SSW 8.1 mph - N/A   Mostly Cloudy
3:35 PM 62.6 °F 62.6 °F 100% 29.66 in 10.0 mi South 8.1 mph - N/A   Overcast
3:55 PM 62.6 °F 62.6 °F 100% 29.65 in 10.0 mi SSW 9.2 mph - N/A   Mostly Cloudy
4:15 PM 64.4 °F 64.4 °F 100% 29.65 in 10.0 mi SSW 8.1 mph - N/A   Overcast
4:35 PM 64.4 °F 64.4 °F 100% 29.66 in 10.0 mi SW 11.5 mph 17.3 mph N/A   Overcast
4:54 PM 64.4 °F 62.6 °F 94% 29.66 in 10.0 mi WSW 12.7 mph 20.7 mph N/A   Overcast
5:15 PM 66.2 °F 62.6 °F 88% 29.67 in 10.0 mi WSW 10.4 mph - N/A   Scattered Clouds
5:35 PM 66.2 °F 62.6 °F 88% 29.65 in 10.0 mi WSW 10.4 mph - N/A   Mostly Cloudy
5:54 PM 64.4 °F 64.4 °F 100% 29.69 in 10.0 mi West 9.2 mph - N/A   Mostly Cloudy
6:15 PM 64.4 °F 60.8 °F 88% 29.71 in 10.0 mi West 15.0 mph 19.6 mph N/A   Mostly Cloudy
6:55 PM 57.2 °F 57.2 °F 100% 29.76 in 10.0 mi NNW 12.7 mph 21.9 mph N/A   Overcast
7:15 PM 55.4 °F - N/A% 29.79 in 7.0 mi NW 9.2 mph - N/A   Overcast
7:55 PM 55.4 °F - N/A% 29.76 in 5.0 mi Calm Calm - N/A   Overcast
8:15 PM 55.4 °F - N/A% 29.74 in 4.0 mi Calm Calm - N/A   Overcast
8:35 PM 59.0 °F - N/A% 29.72 in 10.0 mi South 8.1 mph - N/A   Scattered Clouds
8:55 PM 60.8 °F 60.8 °F 100% 29.69 in 10.0 mi SSW 17.3 mph 25.3 mph N/A   Clear
9:14 PM 60.8 °F 60.8 °F 100% 29.69 in 10.0 mi SW 13.8 mph - N/A   Clear
9:35 PM 57.2 °F 57.2 °F 100% 29.75 in 7.0 mi NNW 19.6 mph - N/A   Scattered Clouds
9:55 PM 51.8 °F - N/A% 29.76 in 3.0 mi North 12.7 mph - N/A   Overcast
10:14 PM 51.8 °F - N/A% 29.73 in 3.0 mi NNE 6.9 mph - N/A   Overcast
10:35 PM 51.8 °F - N/A% 29.70 in 4.0 mi ENE 6.9 mph - N/A   Overcast
11:54 PM 51.8 °F - N/A% 29.72 in 5.0 mi ESE 6.9 mph - N/A   Overcast